Regional Weather Roundup
Issued by NWS

Home | Current Version | Previous Version | Graphics & Text | Print | Product List | Glossary Off
Versions: 1 2 3 4 5 6 7 8 9 10 11 12 13 14 15 16 17 18 19 20 21 22 23 24 25 26 27 28 29 30 31 32 33 34 35 36 37 38 39 40 41 42 43 44 45 46 47 48 49 50

000
ASUS43 KDMX 011607
RWRIA

WEATHER ROUNDUP FOR IOWA
NATIONAL WEATHER SERVICE DES MOINES IA
1100 AM CDT WED JUL 01 2015

NOTE: "FAIR" INDICATES FEW OR NO CLOUDS BELOW 12,000 FEET WITH NO
SIGNIFICANT WEATHER AND/OR OBSTRUCTIONS TO VISIBILITY.

* - THESE STATIONS ARE NOT NWS STATIONS...THUS NOT UNDER NWS
QUALITY CONTROL.  THEY ALSO DO NOT REPORT WEATHER SUCH
AS PRECIPITATION OR FOG.

IAZ001>003-012>014-020>022-031>034-043>046-011700-
   NORTHWEST IOWA

CITY           SKY/WX    TMP DP  RH WIND       PRES   REMARKS
CARROLL *      CLOUDY    66  64  94 SE12G20   29.88R
CHEROKEE *     PTSUNNY   68  64  88 E6        29.94R
DENISON *      MOSUNNY   70  66  88 SE8       29.88R
LE MARS *      CLOUDY    68  66  94 E6        29.94S FOG
ORANGE CITY *  RAIN      64  63  94 SE6       29.94S
SHELDON *      SUNNY     66  66 100 SE8       29.94R
SIOUX CITY     LGT RAIN  68  65  90 CALM      29.91F FOG
SPENCER        PTSUNNY   69  60  73 E14       29.95S
STORM LAKE *   MOSUNNY   68  61  77 E9G17     29.94R
$$

IAZ055>058-069>071-079>083-090>094-011700-
   SOUTHWEST IOWA

CITY           SKY/WX    TMP DP  RH WIND       PRES   REMARKS
ATLANTIC *     CLOUDY    70  68  94 E13       29.89F
AUDUBON *      PTSUNNY   68  66  94 SE9       29.90F FOG
CLARINDA *     PTSUNNY   73  70  88 SE7       29.91R
COUNCIL BLFS * MOSUNNY   75  70  83 E10       29.88F
CRESTON *      CLOUDY    70  68  94 E8        29.92S
HARLAN  *      MOSUNNY   72  72 100 SE10G17   29.91F
LAMONI         LGT RAIN  71  67  87 SE7       29.89R
RED OAK *      PTSUNNY   75  70  83 E9        29.89F
SHENANDOAH *   SUNNY     77  70  78 E7        29.88F
$$

IAZ047>049-059>061-072>074-084-011700-
   CENTRAL IOWA

CITY           SKY/WX    TMP DP  RH WIND       PRES   REMARKS
AMES           CLOUDY    69  59  70 E8        29.94S
ANKENY *       SUNNY     70  63  78 VRB3G12   29.94R
CHARITON *     PTSUNNY   72  68  88 NE7       29.92R
DES MOINES     CLOUDY    72  62  71 NE5       29.94R
GRINNELL*      PTSUNNY   70  61  73 E13       29.94F
KNOXVILLE *    SUNNY     72  63  73 E8        29.90S
MARSHALLTOWN   MOSUNNY   70  60  70 E13       29.94S
PELLA *        CLOUDY    72  64  78 E6        29.93S
PERRY *        RAIN      66  63  88 E12       29.90F
$$

IAZ004>006-015-016-023>025-035-036-011700-
   NORTH CENTRAL IOWA

CITY           SKY/WX    TMP DP  RH WIND       PRES   REMARKS
ALGONA *       MOSUNNY   66  57  72 E10G16    29.97S
CLARION *      SUNNY     70  57  64 E14       29.95F
ESTHERVILLE    CLOUDY    63  56  78 E8        29.97
FORT DODGE *   CLOUDY    70  57  64 E14       29.94F
MASON CITY     PTSUNNY   65  56  72 E7        30.00S
FOREST CITY *  MOSUNNY   63  55  77 E6        29.98S
IOWA FALLS *     N/A     68  57  68 E9        29.97S
$$

IAZ007>011-017>019-026>030-037>042-050>054-066-011700-
   NORTHEAST IOWA

CITY           SKY/WX    TMP DP  RH WIND       PRES   REMARKS
CEDAR RAPIDS   MOSUNNY   69  61  75 E9        29.94F
CHARLES CITY * SUNNY     64  57  77 E7        30.00S
CLINTON *      CLOUDY    64  57  77 NE7       29.99F
DECORAH *        N/A    N/A N/A N/A MISG        N/A
DUBUQUE        MOSUNNY   66  58  75 N9        29.97F
MONTICELLO *   PTSUNNY   66 N/A N/A E9        29.97F
OELWEIN *      MOSUNNY   64  59  82 NE10      29.99
WATERLOO       SUNNY     69  57  65 E9        29.96F
$$

IAZ064-065-067-068-078-011700-
   EAST CENTRAL IOWA

CITY           SKY/WX    TMP DP  RH WIND       PRES   REMARKS
DAVENPORT      CLOUDY    66  59  78 E9        29.97R
IOWA CITY      MOSUNNY   70  61  73 E10       29.96R
MT. PLEASANT * SUNNY     77  61  57 NE7       29.93S
MUSCATINE *    PTSUNNY   70  63  78 NE9       29.95S
QUAD CITIES    CLOUDY    65  59  81 E9        29.96R
$$

IAZ062-063-075>077-085>089-095>099-011700-
   SOUTHEAST IOWA

CITY           SKY/WX    TMP DP  RH WIND       PRES   REMARKS
BURLINGTON     SUNNY     75  66  73 NE9       29.92S
FAIRFIELD *    SUNNY     73  64  73 E6        29.93S
FORT MADISON * SUNNY     73  70  88 CALM      29.93S
KEOKUK *       PTSUNNY   77  70  78 NE6       29.90S
OSKALOOSA *      N/A     72  63  73 E8        29.92F
CENTERVILLE *  LGT RAIN  72  68  88 E10       29.88F
OTTUMWA        MOSUNNY   73  65  75 E9        29.90F
WASHINGTON *   SUNNY     72  63  73 NE10      29.95S
$$

ABBREVIATIONS USED IN REMARKS
   TC - TEMPERATURES IN CELSIUS
  WCI - WIND CHILL INDEX
   HX - HEAT INDEX
  VSB - VISIBILITY
$$




USA.gov is the U.S. government's official web portal to all federal, state and local government web resources and services.